weather.gov     
National Weather Service

Terminal Aerodrome Forecast
NWS Homepage
This page is being discontinued on March 12, 2014.
The same data is available at this site. Please update your bookmarks.
Thank you, and we apologize for the inconvenience.
Please send an email to SR-SRH.Webmaster@noaa.gov with any concerns.


Current Version
Previous Version:    01  02  03  04  05  06  07  08  09  10  11  12  13  14  15  16  17  18  19  20  21  22  23  24  25  26  27  28  29  30  
   31  32  33  34  35  36  37  38  39  40  41  
[Printable]
905
FTUS45 KGJT 200115 AAA
TAFCNY
TAF AMD
KCNY 200115Z 2001/2024 32005KT P6SM FEW030 BKN180
     FM200800 VRB02KT P6SM BKN035 BKN100
     FM201800 34004KT P6SM BKN050 BKN100=


905
FTUS45 KGJT 200115 AAA
TAFCNY
TAF AMD
KCNY 200115Z 2001/2024 32005KT P6SM FEW030 BKN180
     FM200800 VRB02KT P6SM BKN035 BKN100
     FM201800 34004KT P6SM BKN050 BKN100=




U.S. Dept. of Commerce
NOAA National Weather Service
1325 East West Highway
Silver Spring, MD 20910
E-mail: w-nws.webmaster@noaa.gov
Page last modified: May 16, 2007
NATIONAL WEATHER SERVICE: for Safety, for Work, for Fun - FOR LIFE